Regional Weather Roundup
Issued by NWS

Home | Current Version | Previous Version | Text Only | Print | Product List | Glossary On
Versions: 1 2 3 4 5 6 7 8 9 10 11 12 13 14 15 16 17 18 19 20 21 22 23 24 25 26 27 28 29 30 31 32 33 34 35 36 37 38 39 40 41 42 43 44 45 46 47 48 49 50
000
ASUS43 KBIS 250420
RWRND

NORTH DAKOTA REGIONAL WEATHER ROUNDUP
NATIONAL WEATHER SERVICE BISMARCK ND
1100 PM CDT FRI APR 24 2015

NOTE: "FAIR" INDICATES FEW OR NO CLOUDS BELOW 12,000 FEET WITH NO
SIGNIFICANT WEATHER AND/OR OBSTRUCTIONS TO VISIBILITY.


NDZ001>003-009>011-017-250500-
NORTHWEST NORTH DAKOTA

CITY           SKY/WX    TMP DP  RH WIND       PRES   REMARKS
WILLISTON      CLOUDY    58  36  43 E8        29.65R
MINOT          PTCLDY    48  37  65 E13       29.71R
MINOT AFB      PTCLDY    48  41  75 E17       29.70R
$$

NDZ018>021-031>035-040>046-250500-
SOUTHWEST NORTH DAKOTA

CITY           SKY/WX    TMP DP  RH WIND       PRES   REMARKS
BISMARCK       CLEAR     50  42  74 E13       29.71R
DICKINSON      PTCLDY    46  32  58 E8        29.64S
GARRISON         N/A     48  39  71 E10       29.69R
HETTINGER ARPT PTCLDY    46  34  62 E10       29.67R
$$

NDZ004>008-012>016-024-026-027-054-250500-
NORTHEAST NORTH DAKOTA

CITY           SKY/WX    TMP DP  RH WIND       PRES   REMARKS
GRAND FORKS    CLOUDY    48  36  63 SE7       29.81R
GRND FRKS AFB  CLOUDY    47  37  67 SE8       29.81R
DEVILS LAKE    CLOUDY    46  37  71 E13       29.78R
$$

NDZ022-023-025-028>030-036>039-047>053-250500-
SOUTHEAST NORTH DAKOTA

CITY           SKY/WX    TMP DP  RH WIND       PRES   REMARKS
FARGO          CLOUDY    46  39  76 E12       29.78R
JAMESTOWN      CLOUDY    47  40  76 E13       29.74R
$$



USA.gov is the U.S. government's official web portal to all federal, state and local government web resources and services.